Home   Weather   Wroclaw   Past weeks

Flag for Poland Past Weather in Wroclaw, Poland — Yesterday and Last 2 Weeks

39 °F


Feels Like: 36 °F
Forecast: 45 / 57 °F
Wind: 5 mph from East

Location: Wroclaw Ii

Current Time: Oct 23, 2016 at 5:20:18 AM

Latest Report: Oct 23, 2016 at 5:00 AM

Visibility: 10 mi

Pressure: 30.01 "Hg

Humidity: 100%

Dew Point: 39 °F

Location of WroclawLocation

Past Weather in Wroclaw — Graph


Wroclaw Temperature Yesterday

Maximum temperature yesterday: 52 °F (at 2:30 PM)
Minimum temperature yesterday: 36 °F (at 8:00 AM)
Average temperature yesterday: 44 °F

High & Low Weather Summary for the Past Weeks

High59 °F (Oct 15, 2:00 PM)100% (Oct 8, 5:30 AM)30.39 "Hg (Oct 8, 5:30 AM)
Low32 °F (Oct 21, 4:30 AM)54% (Oct 22, 4:00 PM)29.92 "Hg (Oct 15, 8:00 AM)
Average46 °F88%30.10 "Hg
* Reported Oct 8 4:00 AM — Oct 23 4:00 AM, Wroclaw, Weather by CustomWeather, © 2016

Note: Actual official high and low records may vary slightly from our data, if they occured in-between our weather recording intervals... More about our weather records


Wroclaw Weather History for the Previous 24 Hours

Scroll right to see more
Time TempWeatherWind HumidityBarometerVisibility
4:00 AM
Sun, Oct 23
39 °FPassing clouds.6 mph100%30.04 "HgN/A
3:30 AM39 °FFog.6 mph93%30.01 "HgN/A
3:00 AM41 °FFog.3 mph93%30.01 "HgN/A
2:30 AM41 °FFog.5 mph93%30.01 "HgN/A
2:00 AM41 °FFog.3 mph93%30.04 "Hg3 mi
1:30 AM41 °FClear.3 mph93%30.01 "Hg4 mi
1:00 AM41 °FPassing clouds.5 mph100%30.01 "Hg4 mi
12:30 AM41 °FFog.6 mph100%30.01 "Hg3 mi
12:00 AM41 °FFog.6 mph100%30.01 "Hg3 mi
11:30 PM
Sat, Oct 22
41 °FFog.7 mph100%30.01 "Hg2 mi
11:00 PM41 °FFog.3 mph93%30.01 "Hg5 mi
10:30 PM41 °FLight rain. Passing clouds.3 mph100%30.01 "Hg6 mi
10:00 PM43 °FLight rain. Partly cloudy.5 mph93%30.01 "Hg4 mi
9:30 PM43 °FLight rain. Fog.7 mph93%30.01 "Hg3 mi
9:00 PM43 °FLight rain. Passing clouds.6 mph87%30.01 "HgN/A
8:30 PM41 °FPassing clouds.3 mph87%29.98 "HgN/A
8:00 PM41 °FClear.5 mph87%29.98 "Hg10 mi
7:30 PM39 °FPassing clouds.5 mph87%29.98 "HgN/A
7:00 PM41 °FClear.3 mph87%29.98 "Hg10 mi
6:30 PM43 °FClear.3 mph81%29.98 "Hg10 mi
6:00 PM45 °FPassing clouds.3 mph71%29.98 "HgN/A
5:30 PM48 °FPassing clouds.3 mph62%29.98 "HgN/A
5:00 PM50 °FPartly sunny.7 mph58%29.98 "HgN/A
4:30 PM50 °FScattered clouds.7 mph58%29.98 "HgN/A
4:00 PM52 °FPassing clouds.3 mph54%29.98 "HgN/A
3:30 PM50 °FPassing clouds.6 mph58%29.98 "HgN/A
3:00 PM48 °FPassing clouds.6 mph62%29.98 "HgN/A
2:30 PM52 °FPassing clouds.7 mph58%29.98 "HgN/A
2:00 PM50 °FPassing clouds.7 mph58%29.98 "HgN/A
1:30 PM50 °FScattered clouds.6 mph62%29.98 "HgN/A
1:00 PM50 °FScattered clouds.7 mph62%29.98 "HgN/A
12:30 PM50 °FPassing clouds.7 mph67%29.98 "HgN/A
12:00 PM48 °FPassing clouds.6 mph71%29.98 "HgN/A
11:30 AM48 °FPassing clouds.5 mph71%29.98 "HgN/A
11:00 AM48 °FPassing clouds.7 mph71%29.98 "HgN/A
10:30 AM46 °FPassing clouds.8 mph76%29.98 "HgN/A
10:00 AM45 °FPassing clouds.5 mph81%29.98 "HgN/A
9:30 AM43 °FPassing clouds.5 mph93%29.98 "HgN/A
9:00 AM41 °FFog.1 mph93%29.98 "Hg3 mi
8:30 AM39 °FFog.2 mph93%29.98 "Hg2 mi
8:00 AM36 °FFog.3 mph93%29.98 "Hg0 mi
7:30 AM39 °FFog.2 mph100%29.95 "Hg1 mi
7:00 AM41 °FFog.1 mph93%29.95 "Hg1 mi
6:30 AM41 °FClear.2 mph93%29.95 "Hg5 mi
6:00 AM43 °FClear.2 mph93%29.95 "Hg4 mi
5:30 AM43 °FClear.3 mph93%29.95 "Hg4 mi
5:00 AM43 °FClear.3 mph93%29.95 "Hg4 mi
Weather by CustomWeather, © 2016

See weather overviewHow to use our weather pages